• In Czech Republic
  • List of Countries
  • For 7 days
  • Water Temperature
  • Satellite Maps
  • Weather Map
  • Weather Widgets
  • user-avatar
    Login

    Hourly Weather Gloucester

    Today, 23 October, Monday

    Time Temperature Precipitation Wind Pressure Humidity
    00:00 +8°C° 0 mm 3 mps 757 mmHg 92%
    01:00 +9°C° 0.1 mm 3 mps 757 mmHg 93%
    02:00 +8°C° 0.1 mm 4 mps 757 mmHg 94%
    03:00 +10°C° 0.1 mm 4 mps 756 mmHg 95%
    04:00 +10°C° 0.4 mm 4 mps 756 mmHg 95%
    05:00 +11°C° 0.4 mm 4 mps 756 mmHg 95%
    06:00 +11°C° 0.4 mm 4 mps 756 mmHg 95%
    07:00 +12°C° 0.1 mm 5 mps 755 mmHg 95%
    08:00 +13°C° 0.1 mm 5 mps 755 mmHg 94%
    09:00 +13°C° 0.1 mm 5 mps 755 mmHg 94%
    10:00 +14°C° 0 mm 5 mps 755 mmHg 92%
    11:00 +15°C° 0 mm 5 mps 755 mmHg 90%
    12:00 +16°C° 0 mm 5 mps 755 mmHg 88%
    13:00 +16°C° 0 mm 5 mps 755 mmHg 88%
    14:00 +16°C° 0 mm 5 mps 755 mmHg 87%
    15:00 +16°C° 0 mm 5 mps 755 mmHg 86%
    16:00 +15°C° 0 mm 4 mps 756 mmHg 89%
    17:00 +14°C° 0 mm 4 mps 756 mmHg 91%
    18:00 +14°C° 0 mm 4 mps 756 mmHg 93%
    19:00 +13°C° 0 mm 3 mps 756 mmHg 94%
    20:00 +13°C° 0 mm 3 mps 757 mmHg 94%
    21:00 +13°C° 0 mm 3 mps 757 mmHg 95%
    22:00 +14°C° 0 mm 3 mps 757 mmHg 95%
    23:00 +14°C° 0 mm 4 mps 757 mmHg 96%

    Tomorrow, 24 October, Tuesday

    Time Temperature Precipitation Wind Pressure Humidity
    00:00 +14°C° 0 mm 4 mps 756 mmHg 97%
    01:00 +15°C° 0.6 mm 4 mps 756 mmHg 96%
    02:00 +15°C° 0.6 mm 5 mps 756 mmHg 96%
    03:00 +15°C° 0.6 mm 5 mps 756 mmHg 95%
    04:00 +16°C° 0.4 mm 6 mps 756 mmHg 94%
    05:00 +16°C° 0.4 mm 6 mps 756 mmHg 93%
    06:00 +16°C° 0.4 mm 6 mps 756 mmHg 92%
    07:00 +16°C° 0.1 mm 7 mps 756 mmHg 91%
    08:00 +16°C° 0.1 mm 7 mps 756 mmHg 90%
    09:00 +16°C° 0.1 mm 7 mps 756 mmHg 89%
    10:00 +16°C° 0.1 mm 7 mps 756 mmHg 89%
    11:00 +17°C° 0.1 mm 7 mps 756 mmHg 88%
    12:00 +17°C° 0.1 mm 7 mps 756 mmHg 87%
    13:00 +17°C° 0.1 mm 7 mps 756 mmHg 87%
    14:00 +17°C° 0.1 mm 8 mps 756 mmHg 87%
    15:00 +17°C° 0.1 mm 8 mps 755 mmHg 86%
    16:00 +16°C° 0 mm 8 mps 755 mmHg 87%
    17:00 +16°C° 0 mm 7 mps 755 mmHg 87%
    18:00 +16°C° 0 mm 7 mps 755 mmHg 88%
    19:00 +16°C° 0.1 mm 7 mps 755 mmHg 88%
    20:00 +15°C° 0.1 mm 7 mps 755 mmHg 89%
    21:00 +15°C° 0.1 mm 7 mps 755 mmHg 90%
    22:00 +15°C° 0.1 mm 7 mps 755 mmHg 90%
    23:00 +15°C° 0.1 mm 7 mps 755 mmHg 90%

    Day after tomorrow, 25 October, Wednesday

    Time Temperature Precipitation Wind Pressure Humidity
    00:00 +15°C° 0.1 mm 7 mps 756 mmHg 90%
    01:00 +15°C° 0.3 mm 6 mps 756 mmHg 91%
    02:00 +15°C° 0.3 mm 6 mps 756 mmHg 91%
    03:00 +15°C° 0.3 mm 6 mps 756 mmHg 92%
    04:00 +14°C° 0.1 mm 5 mps 757 mmHg 92%
    05:00 +14°C° 0.1 mm 4 mps 757 mmHg 93%
    06:00 +13°C° 0.1 mm 3 mps 757 mmHg 94%
    07:00 +14°C° 0 mm 3 mps 758 mmHg 92%
    08:00 +14°C° 0 mm 3 mps 758 mmHg 90%
    09:00 +14°C° 0 mm 3 mps 759 mmHg 88%
    10:00 +16°C° 0 mm 3 mps 759 mmHg 83%
    11:00 +17°C° 0 mm 3 mps 759 mmHg 78%
    12:00 +17°C° 0 mm 3 mps 759 mmHg 74%
    13:00 +17°C° 0 mm 3 mps 759 mmHg 74%
    14:00 +17°C° 0 mm 3 mps 759 mmHg 74%
    15:00 +17°C° 0 mm 3 mps 759 mmHg 74%
    16:00 +16°C° 0 mm 2 mps 759 mmHg 80%
    17:00 +15°C° 0 mm 2 mps 759 mmHg 85%
    18:00 +14°C° 0 mm 2 mps 760 mmHg 90%
    19:00 +14°C° 0.1 mm 2 mps 760 mmHg 90%
    20:00 +14°C° 0.1 mm 2 mps 760 mmHg 90%
    21:00 +14°C° 0.1 mm 2 mps 760 mmHg 90%
    22:00 +14°C° 0.2 mm 2 mps 760 mmHg 90%
    23:00 +14°C° 0.2 mm 1 mps 760 mmHg 90%

    26 October, Thursday

    Time Temperature Precipitation Wind Pressure Humidity
    00:00 +14°C° 0.2 mm 1 mps 760 mmHg 90%
    01:00 +14°C° 0.1 mm 1 mps 760 mmHg 90%
    02:00 +14°C° 0.1 mm 1 mps 760 mmHg 90%
    03:00 +14°C° 0.1 mm 1 mps 760 mmHg 91%
    04:00 +14°C° 0 mm 1 mps 760 mmHg 92%
    05:00 +14°C° 0 mm 1 mps 761 mmHg 93%
    06:00 +14°C° 0 mm 1 mps 761 mmHg 93%
    07:00 +14°C° 0 mm 1 mps 761 mmHg 93%
    08:00 +14°C° 0 mm 2 mps 761 mmHg 92%
    09:00 +15°C° 0 mm 2 mps 762 mmHg 91%
    10:00 +15°C° 0 mm 2 mps 762 mmHg 89%
    11:00 +16°C° 0 mm 2 mps 762 mmHg 86%
    12:00 +17°C° 0 mm 3 mps 762 mmHg 84%
    13:00 +17°C° 0 mm 2 mps 762 mmHg 83%
    14:00 +17°C° 0 mm 2 mps 762 mmHg 82%
    15:00 +17°C° 0 mm 2 mps 761 mmHg 81%
    16:00 +16°C° 0 mm 2 mps 762 mmHg 85%
    17:00 +15°C° 0 mm 2 mps 762 mmHg 88%
    18:00 +14°C° 0 mm 1 mps 762 mmHg 92%
    19:00 +14°C° 0 mm 1 mps 762 mmHg 92%
    20:00 +14°C° 0 mm 1 mps 762 mmHg 93%
    21:00 +13°C° 0 mm 1 mps 762 mmHg 93%
    22:00 +13°C° 0 mm 2 mps 762 mmHg 94%
    23:00 +13°C° 0 mm 2 mps 762 mmHg 94%

    27 October, Friday

    Time Temperature Precipitation Wind Pressure Humidity
    00:00 +13°C° 0 mm 2 mps 762 mmHg 94%
    01:00 +13°C° 0 mm 2 mps 762 mmHg 93%
    02:00 +12°C° 0 mm 2 mps 762 mmHg 92%
    03:00 +12°C° 0 mm 2 mps 762 mmHg 91%
    04:00 +12°C° 0 mm 2 mps 762 mmHg 91%
    05:00 +10°C° 0 mm 3 mps 763 mmHg 91%
    06:00 +10°C° 0 mm 3 mps 763 mmHg 91%
    07:00 +10°C° 0 mm 3 mps 764 mmHg 89%
    08:00 +10°C° 0 mm 4 mps 764 mmHg 87%
    09:00 +11°C° 0 mm 4 mps 765 mmHg 85%
    10:00 +11°C° 0 mm 4 mps 765 mmHg 81%
    11:00 +12°C° 0 mm 4 mps 765 mmHg 77%
    12:00 +13°C° 0 mm 4 mps 765 mmHg 73%
    13:00 +13°C° 0 mm 4 mps 765 mmHg 72%
    14:00 +13°C° 0 mm 4 mps 765 mmHg 72%
    15:00 +13°C° 0 mm 4 mps 765 mmHg 72%
    16:00 +12°C° 0 mm 4 mps 765 mmHg 77%
    17:00 +10°C° 0 mm 3 mps 765 mmHg 83%
    18:00 +9°C° 0 mm 3 mps 765 mmHg 88%
    19:00 +8°C° 0 mm 4 mps 765 mmHg 88%
    20:00 +7°C° 0 mm 4 mps 765 mmHg 88%
    21:00 +7°C° 0 mm 4 mps 765 mmHg 88%
    22:00 +7°C° 0 mm 5 mps 765 mmHg 89%
    23:00 +7°C° 0 mm 5 mps 764 mmHg 89%

    28 October, Saturday

    Time Temperature Precipitation Wind Pressure Humidity
    00:00 +7°C° 0 mm 5 mps 764 mmHg 89%
    01:00 +7°C° 0 mm 5 mps 764 mmHg 87%
    02:00 +7°C° 0 mm 5 mps 764 mmHg 85%
    03:00 +7°C° 0 mm 5 mps 763 mmHg 84%
    04:00 +7°C° 0 mm 5 mps 763 mmHg 83%
    05:00 +7°C° 0 mm 5 mps 763 mmHg 83%
    06:00 +7°C° 0 mm 4 mps 763 mmHg 83%
    07:00 +8°C° 0 mm 5 mps 763 mmHg 81%
    08:00 +8°C° 0 mm 5 mps 763 mmHg 80%
    09:00 +9°C° 0 mm 6 mps 763 mmHg 78%
    10:00 +10°C° 0 mm 6 mps 763 mmHg 76%
    11:00 +11°C° 0 mm 6 mps 763 mmHg 74%
    12:00 +13°C° 0 mm 6 mps 763 mmHg 71%
    13:00 +13°C° 0 mm 5 mps 763 mmHg 72%
    14:00 +13°C° 0 mm 5 mps 763 mmHg 73%
    15:00 +13°C° 0 mm 5 mps 763 mmHg 74%
    16:00 +12°C° 0 mm 4 mps 763 mmHg 78%
    17:00 +11°C° 0 mm 4 mps 763 mmHg 81%
    18:00 +10°C° 0 mm 3 mps 763 mmHg 85%
    19:00 +10°C° 0 mm 3 mps 763 mmHg 87%
    20:00 +9°C° 0 mm 3 mps 764 mmHg 90%
    21:00 +8°C° 0 mm 2 mps 764 mmHg 92%
    22:00 +8°C° 0 mm 3 mps 764 mmHg 92%
    23:00 +8°C° 0 mm 3 mps 764 mmHg 92%

    29 October, Sunday

    Time Temperature Precipitation Wind Pressure Humidity
    00:00 +8°C° 0 mm 3 mps 764 mmHg 91%
    01:00 +7°C° 0 mm 3 mps 763 mmHg 91%
    02:00 +7°C° 0 mm 3 mps 763 mmHg 90%
    03:00 +7°C° 0 mm 3 mps 763 mmHg 90%
    04:00 +7°C° 0 mm 3 mps 763 mmHg 88%
    05:00 +7°C° 0 mm 3 mps 763 mmHg 85%
    06:00 +7°C° 0 mm 3 mps 763 mmHg 83%
    07:00 +8°C° 0 mm 4 mps 763 mmHg 83%
    08:00 +10°C° 0 mm 4 mps 763 mmHg 82%
    09:00 +11°C° 0 mm 4 mps 763 mmHg 82%
    10:00 +13°C° 0 mm 5 mps 763 mmHg 81%
    11:00 +14°C° 0 mm 5 mps 763 mmHg 80%
    12:00 +16°C° 0 mm 6 mps 762 mmHg 79%
    13:00 +15°C° 0 mm 6 mps 762 mmHg 79%
    14:00 +15°C° 0 mm 6 mps 762 mmHg 80%
    15:00 +15°C° 0 mm 5 mps 761 mmHg 81%
    16:00 +15°C° 0 mm 5 mps 762 mmHg 83%
    17:00 +14°C° 0 mm 5 mps 762 mmHg 85%
    18:00 +14°C° 0 mm 5 mps 762 mmHg 88%
    19:00 +13°C° 0 mm 4 mps 762 mmHg 89%
    20:00 +12°C° 0 mm 4 mps 763 mmHg 91%
    21:00 +12°C° 0 mm 4 mps 763 mmHg 92%
    22:00 +11°C° 0 mm 4 mps 763 mmHg 92%
    23:00 +10°C° 0 mm 3 mps 763 mmHg 92%
    Show more